When you browse on this site, cookies collect data to enhance your experience and personalize the content and advertising you see.
Visit our Privacy Policy to learn more. By continuing to use the site, you agree to this use of cookies and data.
  • en France
  • Liste des pays
  • À 7 jours
  • Température de l'eau
  • Carte météo
  • Widgets météo
  • user-avatar
    Se connecter

    Météo par heure à Billericay

    Ce jour, 31 Mai, Dimanche

    Heure Température Précipitation Vent Pression Humidité
    00:00 +11°C° 0 mm 4 m/s 761 mmHg 84%
    01:00 +11°C° 0 mm 4 m/s 761 mmHg 86%
    02:00 +11°C° 0 mm 3 m/s 761 mmHg 88%
    03:00 +11°C° 0 mm 3 m/s 761 mmHg 90%
    04:00 +12°C° 0 mm 3 m/s 761 mmHg 86%
    05:00 +13°C° 0 mm 4 m/s 761 mmHg 82%
    06:00 +14°C° 0 mm 3 m/s 762 mmHg 80%
    07:00 +15°C° 0 mm 4 m/s 762 mmHg 73%
    08:00 +17°C° 0 mm 5 m/s 762 mmHg 66%
    09:00 +19°C° 0 mm 6 m/s 762 mmHg 58%
    10:00 +19°C° 0 mm 6 m/s 762 mmHg 56%
    11:00 +20°C° 0 mm 6 m/s 762 mmHg 54%
    12:00 +20°C° 0 mm 7 m/s 762 mmHg 52%
    13:00 +20°C° 0 mm 7 m/s 762 mmHg 52%
    14:00 +20°C° 0 mm 7 m/s 762 mmHg 52%
    15:00 +18°C° 0 mm 7 m/s 762 mmHg 52%
    16:00 +17°C° 0 mm 6 m/s 762 mmHg 56%
    17:00 +17°C° 0 mm 6 m/s 762 mmHg 60%
    18:00 +16°C° 0 mm 6 m/s 762 mmHg 64%
    19:00 +14°C° 0 mm 6 m/s 762 mmHg 70%
    20:00 +13°C° 0 mm 5 m/s 762 mmHg 75%
    21:00 +12°C° 0 mm 5 m/s 762 mmHg 81%
    22:00 +10°C° 0 mm 5 m/s 762 mmHg 85%
    23:00 +11°C° 0 mm 4 m/s 762 mmHg 88%

    Demain, 1 Juin, Lundi

    Heure Température Précipitation Vent Pression Humidité
    00:00 +10°C° 0 mm 4 m/s 762 mmHg 92%
    01:00 +10°C° 0 mm 4 m/s 762 mmHg 92%
    02:00 +10°C° 0 mm 3 m/s 762 mmHg 93%
    03:00 +10°C° 0 mm 3 m/s 762 mmHg 94%
    04:00 +11°C° 0 mm 4 m/s 762 mmHg 91%
    05:00 +12°C° 0 mm 4 m/s 762 mmHg 88%
    06:00 +13°C° 0 mm 4 m/s 762 mmHg 85%
    07:00 +15°C° 0 mm 4 m/s 762 mmHg 80%
    08:00 +16°C° 0 mm 5 m/s 762 mmHg 74%
    09:00 +19°C° 0 mm 5 m/s 762 mmHg 68%
    10:00 +19°C° 0 mm 5 m/s 762 mmHg 66%
    11:00 +20°C° 0 mm 5 m/s 762 mmHg 64%
    12:00 +20°C° 0 mm 6 m/s 762 mmHg 61%
    13:00 +20°C° 0 mm 6 m/s 762 mmHg 61%
    14:00 +20°C° 0 mm 6 m/s 762 mmHg 62%
    15:00 +20°C° 0 mm 5 m/s 762 mmHg 62%
    16:00 +19°C° 0 mm 5 m/s 761 mmHg 64%
    17:00 +19°C° 0 mm 5 m/s 761 mmHg 66%
    18:00 +17°C° 0 mm 5 m/s 761 mmHg 68%
    19:00 +15°C° 0 mm 4 m/s 761 mmHg 74%
    20:00 +13°C° 0 mm 4 m/s 762 mmHg 79%
    21:00 +11°C° 0 mm 4 m/s 762 mmHg 85%
    22:00 +11°C° 0 mm 3 m/s 762 mmHg 87%
    23:00 +10°C° 0 mm 3 m/s 761 mmHg 90%

    Après-demain, 2 Juin, Mardi

    Heure Température Précipitation Vent Pression Humidité
    00:00 +9°C° 0 mm 3 m/s 761 mmHg 92%
    01:00 +9°C° 0 mm 3 m/s 761 mmHg 93%
    02:00 +9°C° 0 mm 3 m/s 761 mmHg 93%
    03:00 +9°C° 0 mm 3 m/s 761 mmHg 94%
    04:00 +10°C° 0 mm 3 m/s 760 mmHg 93%
    05:00 +11°C° 0 mm 3 m/s 760 mmHg 92%
    06:00 +12°C° 0 mm 3 m/s 760 mmHg 91%
    07:00 +14°C° 0 mm 3 m/s 760 mmHg 84%
    08:00 +17°C° 0 mm 3 m/s 760 mmHg 77%
    09:00 +19°C° 0 mm 2 m/s 760 mmHg 71%
    10:00 +20°C° 0 mm 2 m/s 760 mmHg 66%
    11:00 +23°C° 0 mm 2 m/s 759 mmHg 61%
    12:00 +24°C° 0 mm 2 m/s 759 mmHg 56%
    13:00 +23°C° 0 mm 2 m/s 758 mmHg 58%
    14:00 +22°C° 0 mm 3 m/s 758 mmHg 60%
    15:00 +22°C° 0 mm 3 m/s 757 mmHg 62%
    16:00 +21°C° 0.1 mm 3 m/s 757 mmHg 66%
    17:00 +20°C° 0.1 mm 3 m/s 757 mmHg 71%
    18:00 +19°C° 0.1 mm 3 m/s 756 mmHg 76%
    19:00 +18°C° 0.1 mm 3 m/s 756 mmHg 79%
    20:00 +17°C° 0.1 mm 2 m/s 756 mmHg 82%
    21:00 +16°C° 0.1 mm 2 m/s 756 mmHg 85%
    22:00 +15°C° 0 mm 2 m/s 755 mmHg 87%
    23:00 +14°C° 0 mm 2 m/s 755 mmHg 89%

    3 Juin, Mercredi

    Heure Température Précipitation Vent Pression Humidité
    00:00 +14°C° 0 mm 2 m/s 754 mmHg 91%
    01:00 +13°C° 0 mm 2 m/s 754 mmHg 92%
    02:00 +13°C° 0 mm 2 m/s 754 mmHg 92%
    03:00 +12°C° 0 mm 2 m/s 753 mmHg 93%
    04:00 +12°C° 0 mm 2 m/s 753 mmHg 92%
    05:00 +12°C° 0 mm 3 m/s 753 mmHg 90%
    06:00 +12°C° 0 mm 3 m/s 752 mmHg 89%
    07:00 +13°C° 0 mm 3 m/s 752 mmHg 85%
    08:00 +16°C° 0 mm 3 m/s 752 mmHg 80%
    09:00 +17°C° 0 mm 3 m/s 752 mmHg 75%
    10:00 +18°C° 0 mm 3 m/s 752 mmHg 70%
    11:00 +19°C° 0 mm 3 m/s 752 mmHg 65%
    12:00 +20°C° 0 mm 3 m/s 751 mmHg 60%
    13:00 +20°C° 0.2 mm 4 m/s 751 mmHg 64%
    14:00 +19°C° 0.2 mm 4 m/s 751 mmHg 67%
    15:00 +19°C° 0.2 mm 5 m/s 750 mmHg 70%
    16:00 +17°C° 0.2 mm 5 m/s 750 mmHg 73%
    17:00 +16°C° 0.2 mm 6 m/s 750 mmHg 75%
    18:00 +15°C° 0.2 mm 6 m/s 750 mmHg 78%
    19:00 +14°C° 0 mm 6 m/s 751 mmHg 80%
    20:00 +13°C° 0 mm 6 m/s 751 mmHg 81%
    21:00 +12°C° 0 mm 5 m/s 751 mmHg 83%
    22:00 +12°C° 0 mm 5 m/s 751 mmHg 84%
    23:00 +11°C° 0 mm 6 m/s 751 mmHg 86%

    4 Juin, Jeudi

    Heure Température Précipitation Vent Pression Humidité
    00:00 +10°C° 0 mm 6 m/s 751 mmHg 87%
    01:00 +10°C° 0 mm 6 m/s 751 mmHg 85%
    02:00 +10°C° 0 mm 6 m/s 751 mmHg 82%
    03:00 +10°C° 0 mm 6 m/s 751 mmHg 80%
    04:00 +12°C° 0 mm 5 m/s 751 mmHg 77%
    05:00 +12°C° 0 mm 5 m/s 751 mmHg 75%
    06:00 +12°C° 0 mm 5 m/s 751 mmHg 72%
    07:00 +12°C° 0 mm 5 m/s 751 mmHg 70%
    08:00 +13°C° 0 mm 4 m/s 751 mmHg 68%
    09:00 +13°C° 0 mm 4 m/s 751 mmHg 66%
    10:00 +14°C° 0 mm 4 m/s 751 mmHg 64%
    11:00 +15°C° 0 mm 4 m/s 751 mmHg 62%
    12:00 +15°C° 0 mm 4 m/s 752 mmHg 60%
    13:00 +17°C° 0 mm 3 m/s 752 mmHg 58%
    14:00 +17°C° 0 mm 3 m/s 751 mmHg 57%
    15:00 +17°C° 0 mm 3 m/s 751 mmHg 55%
    16:00 +17°C° 0 mm 2 m/s 751 mmHg 57%
    17:00 +16°C° 0 mm 2 m/s 751 mmHg 59%
    18:00 +16°C° 0 mm 1 m/s 751 mmHg 61%
    19:00 +15°C° 0 mm 2 m/s 751 mmHg 66%
    20:00 +14°C° 0 mm 2 m/s 751 mmHg 71%
    21:00 +12°C° 0 mm 2 m/s 751 mmHg 77%
    22:00 +11°C° 0 mm 3 m/s 751 mmHg 80%
    23:00 +10°C° 0 mm 3 m/s 751 mmHg 84%

    5 Juin, Vendredi

    Heure Température Précipitation Vent Pression Humidité
    00:00 +10°C° 0 mm 3 m/s 751 mmHg 87%
    01:00 +10°C° 0 mm 3 m/s 751 mmHg 87%
    02:00 +10°C° 0 mm 3 m/s 751 mmHg 87%
    03:00 +9°C° 0 mm 2 m/s 750 mmHg 87%
    04:00 +10°C° 0 mm 2 m/s 750 mmHg 84%
    05:00 +12°C° 0 mm 2 m/s 750 mmHg 81%
    06:00 +12°C° 0 mm 3 m/s 750 mmHg 79%
    07:00 +14°C° 0 mm 3 m/s 750 mmHg 72%
    08:00 +15°C° 0 mm 4 m/s 750 mmHg 66%
    09:00 +18°C° 0 mm 4 m/s 749 mmHg 59%
    10:00 +19°C° 0 mm 4 m/s 749 mmHg 56%
    11:00 +20°C° 0 mm 4 m/s 749 mmHg 53%
    12:00 +21°C° 0 mm 4 m/s 749 mmHg 50%
    13:00 +21°C° 0 mm 4 m/s 749 mmHg 52%
    14:00 +21°C° 0 mm 4 m/s 748 mmHg 54%
    15:00 +21°C° 0 mm 4 m/s 748 mmHg 56%
    16:00 +20°C° 0.1 mm 4 m/s 748 mmHg 62%
    17:00 +19°C° 0.1 mm 3 m/s 748 mmHg 68%
    18:00 +18°C° 0.1 mm 3 m/s 748 mmHg 74%
    19:00 +17°C° 0 mm 3 m/s 748 mmHg 76%
    20:00 +16°C° 0 mm 3 m/s 749 mmHg 77%
    21:00 +14°C° 0 mm 3 m/s 749 mmHg 79%
    22:00 +13°C° 0 mm 4 m/s 749 mmHg 76%
    23:00 +12°C° 0 mm 4 m/s 749 mmHg 72%
    Voir plus